COSMOS 1275 DEB, 39947

Orbit data source: Space-Track

COSMOS 1275 DEB, 39947 is space debris in LEO originally from a launch on Thu, 04 Jun 1981 UTC launched from the Plesetsk Missile And Space Complex (PKMTR). Debris objects in space refer to the collection of defunct objects orbiting the Earth. Examples of debris include non-operational satellites, rocket bodies, and fragments generated from explosions, collisions, or faulty payload assembly.

Loading next visibility...
Identifier
39947, 1981-053NH
Orbit
LEO
Country
Flag of CISCIS
Related business
Manufacturer
Unknown
Mission
Spacecraft
Bus & Motor
Unknown
Mass
Unknown
Launch date (UTC)
1981-06-04 (45 years ago)
Launch vehicle
Unknown
Launch site
Plesetsk Missile And Space Complex (PKMTR)
Object type
Payload
Rocket body
Debris
Shape & HBR
Unknown shape, 0.1 m
Radar Cross Section
Small (<0.1 m²)

Expand to show TLE details & history
Last TLE update: 2 days ago

TLE from 2 days ago
0 COSMOS 1275 DEB
1 39947U 81053NH  26036.52338053  .00001517  00000-0  16713-2 0  9999
2 39947  83.0106  67.2839 0117010 241.8868 272.5092 13.68601965580133
Epoch: 2026-02-05T12:33Z
TLE epoch observation values (Epoch: 2026-02-05T12:33:40.077Z)
Latitude
26.76395°
Longitude
-80.33402°
Altitude
1,005.073 km
Speed
7.353 km/s
True Right ascension
16h 15m 01s
True Declination
26° 37' 50"
Sunlit
Object was in daylight at epoch
Visualization orbit readout
Latitude
Unknown
Longitude
Unknown
Altitude
Unknown
Speed
Unknown
Apparent Right ascension
Unknown
Apparent Declination
Unknown
Sunlit
N/A
Visualization observer readout
Local Sidereal Time
14:18:08
Azimuth
Unknown
Elevation
Unknown
Doppler factor
Unknown
Orbital elements
Apogee altitude
1,088.101 km
Perigee altitude
915.397 km
Semi-major axis
7,379.886 km
Eccentricity
0.0117
Inclination
83.0106°
RAAN
67.2839°
Arg. of periapsis
241.8868°
True anomaly
271.16891°
Mean anomaly
272.5092°
Eccentric anomaly
271.83913°
Mean motion
3.42349 °/min
Orbital period
105.16 mins
BSTAR
0.0016713
Loading maneuver chart data...
Computing Atmospheric mass density...
Loading historical data...
Loading historical data...
Loading historical data...
Loading historical data...
Loading historical data...
Loading historical data...
Loading historical data...

Documentation

Showing up to 5 results
|